Stations météo

réclame
Mon MeteoGroup
Leeming, Grande-Bretagne (3257): Température de l'air & dewpoint: 13.01.2020 20:00:00 - 19.01.2020 20:00:00 (GMT)Leeming, Grande-Bretagne (3257): Température de l'air -20cm & Température de l'air -100cm: 13.01.2020 20:00:00 - 19.01.2020 20:00:00 (GMT)Leeming, Grande-Bretagne (3257): Vitesse du vent & gusts: 13.01.2020 20:00:00 - 19.01.2020 20:00:00 (GMT)Leeming, Grande-Bretagne (3257): Direction du vent: 13.01.2020 20:00:00 - 19.01.2020 20:00:00 (GMT)Leeming, Grande-Bretagne (3257): reduced air pressure: 13.01.2020 20:00:00 - 19.01.2020 20:00:00 (GMT)Leeming, Grande-Bretagne (3257): visibility: 13.01.2020 20:00:00 - 19.01.2020 20:00:00 (GMT)Leeming, Grande-Bretagne (3257): Ensoleillement: 13.01.2020 20:00:00 - 19.01.2020 20:00:00 (GMT)Leeming, Grande-Bretagne (3257): Quantités de précipitations: 13.01.2020 20:00:00 - 19.01.2020 20:00:00 (GMT)
Date & Time tt [°C] td [°C] tt -20cm [°C] tt -100cm [°C] ff [km/h] ff [knt] fx [km/h] fx [knt] dd ppp [hPa] vv [km] sd [min] rr [mm]
19.01.2020 20:00:00 6,1 2,0 - - 15 8 - - SW 1045,4 10 0 -
19.01.2020 19:00:00 5,8 2,4 - - 5 3 - - SW 1045,6 35 0 0,0
19.01.2020 18:00:00 5,3 2,2 - - 11 6 - - S 1045,5 10 0 0,0
19.01.2020 17:00:00 4,9 1,3 - - 9 5 - - S 1045,8 25 0 0,0
19.01.2020 16:00:00 5,0 1,9 - - 8 4 - - WSW 1045,3 40 30 0,0
19.01.2020 15:00:00 5,6 2,0 - - 18 10 - - W 1045,4 35 48 0,0
19.01.2020 14:00:00 5,2 0,0 - - 9 5 - - SSE 1045,1 35 60 0,0
19.01.2020 13:00:00 4,7 0,5 - - 9 5 - - SSE 1044,9 10 48 0,0
19.01.2020 12:00:00 3,8 0,1 - - 9 5 - - SSE 1044,6 30 24 0,0
19.01.2020 11:00:00 3,4 1,0 - - 4 2 - - NW 1045,0 30 18 0,0
19.01.2020 10:00:00 2,3 -0,1 - - 2 1 - - WSW 1045,0 30 60 0,0
19.01.2020 09:00:00 -1,9 -2,9 5,0 7,0 2 1 - - NE 1044,2 28 0 0,0
19.01.2020 08:00:00 -3,6 -4,5 - - 2 1 - - SW 1043,5 28 0 0,0
19.01.2020 07:00:00 -2,6 -3,9 - - 5 3 - - S 1042,5 30 0 0,0
19.01.2020 06:00:00 -2,4 -3,9 - - 4 2 - - S 1041,2 26 0 0,0
19.01.2020 05:00:00 -1,2 -3,3 - - 2 1 - - W 1040,3 35 0 0,0
19.01.2020 04:00:00 0,0 -2,7 - - 5 3 - - NNE 1039,7 40 0 0,0
19.01.2020 03:00:00 1,8 -2,2 - - 13 7 - - WNW 1039,2 10 0 0,0
19.01.2020 02:00:00 2,3 -1,3 - - 8 4 - - W 1038,7 45 0 0,0
19.01.2020 01:00:00 2,8 -1,0 - - 16 9 - - WNW 1037,7 45 0 0,0
19.01.2020 00:00:00 2,4 -1,2 - - 15 8 - - WNW 1036,6 10 - 0,0
18.01.2020 23:00:00 2,7 -0,4 - - 18 10 - - W 1035,9 10 0 0,0
18.01.2020 22:00:00 1,5 -1,3 - - 9 5 - - W 1034,9 10 0 0,0
18.01.2020 21:00:00 2,8 -0,7 - - 11 6 - - WNW 1034,0 45 0 0,0
18.01.2020 20:00:00 3,2 -0,2 - - 11 6 - - W 1033,3 45 0 0,0
18.01.2020 19:00:00 4,5 0,7 - - 18 10 - - W 1031,9 45 0 0,0
18.01.2020 18:00:00 4,9 0,5 - - 22 12 - - WNW 1031,0 10 0 0,0
18.01.2020 17:00:00 3,5 -0,6 - - 8 4 - - W 1029,9 10 0 0,0
18.01.2020 16:00:00 5,4 0,2 - - 15 8 - - WNW 1028,7 10 12 0,0
18.01.2020 15:00:00 6,1 0,3 - - 16 9 - - WNW 1027,8 55 48 0,0
18.01.2020 14:00:00 7,0 0,6 - - 22 12 - - WNW 1026,7 10 60 0,0
18.01.2020 13:00:00 7,0 0,8 - - 24 13 - - W 1026,0 10 60 0,0
18.01.2020 12:00:00 6,4 0,8 - - 15 8 - - W 1025,5 10 60 0,0
18.01.2020 11:00:00 5,3 0,3 - - 16 9 - - WNW 1025,0 10 60 0,0
18.01.2020 10:00:00 3,9 -0,4 - - 15 8 - - W 1024,3 45 54 0,0
18.01.2020 09:00:00 2,9 -0,8 5,7 7,0 21 11 - - W 1023,3 40 0 0,0
18.01.2020 08:00:00 2,5 -0,9 - - 15 8 - - WNW 1022,4 10 0 0,0
18.01.2020 07:00:00 2,9 -0,8 - - 22 12 - - W 1021,1 10 0 0,0
18.01.2020 06:00:00 2,2 -1,4 - - 9 5 - - WNW 1020,3 10 0 0,0
18.01.2020 05:00:00 2,0 -1,4 - - 8 4 - - W 1019,4 40 0 0,0
18.01.2020 04:00:00 3,0 -0,3 - - 21 11 - - W 1018,5 35 0 0,0
18.01.2020 03:00:00 2,4 -0,4 - - 15 8 - - W 1018,1 10 0 0,0
18.01.2020 02:00:00 3,3 0,2 - - 24 13 - - W 1017,3 35 0 0,0
18.01.2020 01:00:00 3,6 0,3 - - 24 13 - - WSW 1016,5 55 0 0,0
18.01.2020 00:00:00 4,2 0,9 - - 18 10 - - W 1015,7 10 - 0,0
17.01.2020 23:00:00 5,0 1,7 - - 31 17 - - W 1014,2 50 0 0,0
17.01.2020 22:00:00 4,5 1,3 - - 18 10 - - WSW 1013,6 10 0 0,0
17.01.2020 21:00:00 4,4 1,8 - - 11 6 - - WSW 1012,7 10 0 0,0
17.01.2020 20:00:00 5,2 2,0 - - 26 14 - - W 1011,9 60 0 0,0
17.01.2020 19:00:00 5,7 1,5 - - 11 6 - - W 1010,8 40 0 0,0
17.01.2020 18:00:00 4,7 1,5 - - 9 5 - - SSW 1010,5 10 0 0,0
17.01.2020 17:00:00 4,5 0,9 - - 11 6 - - WSW 1009,8 10 0 0,0
17.01.2020 16:00:00 5,4 1,3 - - 13 7 - - WSW 1009,0 35 0 0,0
17.01.2020 15:00:00 5,7 2,5 - - 16 9 - - W 1008,4 10 0 0,0
17.01.2020 14:00:00 5,6 2,2 - - 18 10 - - W 1007,7 40 0 0,0
17.01.2020 13:00:00 5,1 2,3 - - 8 4 - - WNW 1007,2 10 0 0,0
17.01.2020 12:00:00 4,9 2,6 - - 13 7 - - NW 1006,5 10 0 0,2
17.01.2020 11:00:00 4,8 3,1 - - 9 5 - - WNW 1006,1 10 0 1,0
17.01.2020 10:00:00 5,3 4,1 - - 13 7 - - WNW 1005,5 8 0 0,4
17.01.2020 09:00:00 6,1 5,0 5,7 7,0 5 3 - - SSE 1004,6 10 0 0,8
17.01.2020 08:00:00 5,7 4,6 - - 11 6 - - SSW 1004,3 10 0 0,0
17.01.2020 07:00:00 5,6 4,5 - - 9 5 - - S 1004,2 10 0 0,0
17.01.2020 06:00:00 6,0 4,1 - - 11 6 - - ESE 1004,4 29 0 0,0
17.01.2020 05:00:00 6,5 4,0 - - 13 7 - - SSE 1004,1 30 0 0,0
17.01.2020 04:00:00 6,7 4,2 - - 11 6 - - SSE 1004,6 10 0 0,0
17.01.2020 03:00:00 6,4 4,1 - - 13 7 - - S 1004,4 30 0 0,0
17.01.2020 02:00:00 7,4 4,6 - - 15 8 - - S 1004,8 30 0 0,0
17.01.2020 01:00:00 7,6 5,1 - - 21 11 - - S 1004,6 10 0 0,0
17.01.2020 00:00:00 8,1 5,0 - - 15 8 - - SSW 1004,6 10 - 0,0
16.01.2020 23:00:00 8,7 5,7 - - 18 10 - - SSW 1003,9 10 0 0,0
16.01.2020 22:00:00 10,0 6,8 - - 28 15 48 26 SW 1003,0 10 0 0,0
16.01.2020 21:00:00 11,0 7,8 - - 28 15 - - S 1001,2 50 0 0,2
16.01.2020 20:00:00 10,5 8,6 - - 22 12 - - SSE 1000,6 10 0 0,0
16.01.2020 19:00:00 9,2 8,5 - - 26 14 48 26 SE 1000,1 12 0 0,4
16.01.2020 18:00:00 9,9 8,1 - - 35 19 50 27 SSE 1000,4 3,9 0 0,6
16.01.2020 17:00:00 9,4 7,1 - - 29 16 48 26 SE 1000,5 35 0 0,0
16.01.2020 16:00:00 8,4 6,3 - - 39 21 59 32 SSE 1001,1 10 0 0,0
16.01.2020 15:00:00 7,4 5,6 - - 31 17 52 28 SE 1002,2 10 0 0,2
16.01.2020 14:00:00 7,0 4,7 - - 28 15 52 28 SE 1005,0 10 0 0,0
16.01.2020 13:00:00 7,2 4,5 - - 26 14 50 27 SE 1006,7 10 0 0,0
16.01.2020 12:00:00 7,0 4,8 - - 29 16 - - SSE 1008,3 10 12 0,0
16.01.2020 11:00:00 6,2 4,6 - - 22 12 - - SE 1010,3 10 0 0,0
16.01.2020 10:00:00 5,2 3,9 - - 22 12 - - SSE 1011,7 10 0 0,0
16.01.2020 09:00:00 5,0 3,8 5,5 7,2 22 12 - - SSE 1012,2 10 0 0,0
16.01.2020 08:00:00 3,9 2,8 - - 24 13 - - SE 1012,0 10 0 0,0
16.01.2020 07:00:00 4,0 2,5 - - 13 7 - - ESE 1012,5 25 0 0,0
16.01.2020 06:00:00 4,2 2,7 - - 24 13 - - SE 1012,5 21 0 0,0
16.01.2020 05:00:00 3,5 1,9 - - 13 7 - - ESE 1012,9 10 0 0,0
16.01.2020 04:00:00 3,8 1,8 - - 9 5 - - E 1013,4 10 0 0,0
16.01.2020 03:00:00 4,5 1,9 - - 15 8 - - SE 1013,2 30 0 0,0
16.01.2020 02:00:00 4,7 2,2 - - 22 12 - - SSE 1012,3 30 0 0,0
16.01.2020 01:00:00 5,4 2,4 - - 13 7 - - SSE 1011,9 35 0 0,0
16.01.2020 00:00:00 5,3 2,2 - - 28 15 - - SW 1010,8 35 - 0,0
15.01.2020 23:00:00 5,6 2,3 - - 24 13 46 25 SW 1010,2 30 0 0,0
15.01.2020 22:00:00 5,9 2,6 - - 28 15 - - SSW 1008,6 10 0 0,0
15.01.2020 21:00:00 6,0 2,3 - - 26 14 48 26 SW 1008,0 30 0 0,0
15.01.2020 20:00:00 6,2 2,0 - - 26 14 - - SW 1007,2 10 0 0,0
15.01.2020 19:00:00 6,0 1,7 - - 18 10 - - SW 1006,3 30 0 0,0
15.01.2020 18:00:00 6,2 1,7 - - 24 13 54 29 SSW 1004,9 40 0 0,0
15.01.2020 17:00:00 7,0 2,0 - - 29 16 46 25 SW 1003,8 10 0 0,0
15.01.2020 16:00:00 7,3 2,1 - - 31 17 52 28 SW 1002,6 10 30 0,0
15.01.2020 15:00:00 8,0 2,0 - - 35 19 54 29 SW 1001,3 10 60 0,0
15.01.2020 14:00:00 8,3 2,1 - - 31 17 50 27 SW 1000,5 45 60 0,0
15.01.2020 13:00:00 8,0 2,3 - - 35 19 59 32 SW 999,5 10 60 0,0
15.01.2020 12:00:00 7,7 2,6 - - 26 14 - - SSW 999,3 10 54 0,0
15.01.2020 11:00:00 6,3 2,2 - - 28 15 46 25 S 998,3 10 0 0,0
15.01.2020 10:00:00 5,8 2,1 - - 28 15 - - S 997,2 35 0 0,0
15.01.2020 09:00:00 5,4 1,8 5,7 7,2 26 14 - - S 996,2 10 0 0,0
15.01.2020 08:00:00 5,1 1,6 - - 22 12 - - S 995,4 10 0 0,0
15.01.2020 07:00:00 4,4 1,1 - - 21 11 - - S 994,9 30 0 0,0
15.01.2020 06:00:00 5,1 1,7 - - 18 10 - - S 994,1 35 0 0,0
15.01.2020 05:00:00 4,7 1,7 - - 15 8 - - S 993,3 35 0 0,0
15.01.2020 04:00:00 5,0 1,3 - - 21 11 - - S 992,8 35 0 0,0
15.01.2020 03:00:00 5,3 1,8 - - 18 10 - - S 992,4 10 0 0,0
15.01.2020 02:00:00 5,2 2,4 - - 13 7 - - S 991,8 50 0 0,0
15.01.2020 01:00:00 5,5 2,5 - - 18 10 - - SSW 991,1 10 0 0,0
15.01.2020 00:00:00 6,0 2,6 - - 22 12 - - SSW 990,8 50 - 0,0
14.01.2020 23:00:00 5,1 2,4 - - 16 9 - - S 989,9 65 0 0,0
14.01.2020 22:00:00 6,0 2,5 - - 22 12 48 26 SW 988,8 10 0 0,0
14.01.2020 21:00:00 6,2 3,8 - - 18 10 - - SSW 986,8 75 0 0,0
14.01.2020 20:00:00 6,0 3,7 - - 21 11 - - SW 985,6 10 0 0,0
14.01.2020 19:00:00 6,5 4,0 - - 24 13 - - WSW 984,0 75 0 0,0
14.01.2020 18:00:00 2,6 1,3 - - 9 5 - - WNW 982,8 10 0 0,2
14.01.2020 17:00:00 5,4 4,1 - - 22 12 - - NW 979,8 6 0 0,2
14.01.2020 16:00:00 7,0 6,6 - - 16 9 - - S 978,9 3,2 0 2,0
14.01.2020 15:00:00 5,7 5,2 - - 16 9 - - SE 980,3 1,8 0 2,0
14.01.2020 14:00:00 5,7 4,8 - - 16 9 - - SE 983,7 6 0 1,6
14.01.2020 13:00:00 6,0 4,5 - - 21 11 - - SSE 986,5 10 0 0,6
14.01.2020 12:00:00 6,3 4,0 - - 24 13 - - SSE 988,2 10 0 0,0
14.01.2020 11:00:00 5,7 3,0 - - 24 13 - - SSE 989,2 10 0 0,0
14.01.2020 10:00:00 5,4 2,7 - - 28 15 - - SSE 989,8 30 0 0,0
14.01.2020 09:00:00 4,7 2,2 5,9 7,2 26 14 - - SSE 990,0 10 0 0,0
14.01.2020 08:00:00 4,4 1,5 - - 26 14 - - SSE 990,3 35 0 0,0
14.01.2020 07:00:00 4,4 1,3 - - 29 16 - - S 990,1 10 0 0,0
14.01.2020 06:00:00 4,4 1,3 - - 24 13 - - S 990,0 26 0 0,0
14.01.2020 05:00:00 4,3 0,9 - - 18 10 - - S 989,9 24 0 0,0
14.01.2020 04:00:00 4,4 1,1 - - 24 13 - - S 989,5 10 0 0,0
14.01.2020 03:00:00 5,3 1,1 - - 34 18 52 28 SSW 989,1 27 0 0,0
14.01.2020 02:00:00 5,7 2,5 - - 24 13 - - SSW 988,5 10 0 0,2
14.01.2020 01:00:00 6,7 2,5 - - 31 17 46 25 SSW 987,9 22 0 0,0
14.01.2020 00:00:00 6,4 2,8 - - 29 16 - - SSW 987,7 18 - 0,0
13.01.2020 23:00:00 6,1 3,0 - - 22 12 48 26 S 987,5 18 0 0,0
13.01.2020 22:00:00 6,1 2,8 - - 29 16 54 29 S 986,8 10 0 0,0
13.01.2020 21:00:00 6,3 3,0 - - 31 17 48 26 SSW 986,4 24 0 0,0
13.01.2020 20:00:00 6,1 3,1 - - 22 12 - - SSW 986,7 10 0 0,0

tt = Température de l'air
td = dewpoint
tt -20cm = Température de l'air -20cm
tt -100cm = Température de l'air -100cm
ff = Vitesse du vent
fx = gusts
dd = Direction du vent
ppp = reduced air pressure
vv = visibility
sd = Ensoleillement
rr = Quantités de précipitations

stations d'obs. à proximité